Main page
METAR-TAF:

METAR-TAF

Airports :

Rabat–Salé Airport

Rabat, Morocco

latitude: 34-03N, longitude: 006-46W, elevation: 84 m

Current weather observation

The report was made 24 minutes ago, at 21:00 UTC
Wind 7 kt from the North/Northwest
Temperature 18°C
Humidity 83%
Pressure 1015 hPa
Visibility: 6000 m
Few clouds at a height of 1600 ft

METAR: GMME 012100Z 34007KT 6000 FEW016 18/15 Q1015 NOSIG

Time: 22:24 (21:24 UTC)

Forecast

The report was made 4 hours and 24 minutes ago, at 17:00 UTC
Forecast valid from 01 at 18 UTC to 02 at 24 UTC
Wind 8 kt from the North
Visibility: 7000 m
Scattered clouds at a height of 1600 ft
Temporary
from 02 at 00 UTC to 02 at 06 UTC
Wind 2 kt from variable directions
Visibility: 5000 m
Scattered clouds at a height of 1000 ft
Broken clouds at a height of 1300 ft
Temporary
from 02 at 08 UTC to 02 at 18 UTC
Wind 16 kt from the Northwest
Visibility: 8000 m

TAF: GMME 011700Z 0118/0224 36008KT 7000 SCT016 TEMPO 0200/0206 VRB02KT 5000 SCT010 BKN013 TEMPO 0208/0218 32016KT 8000 NSC

Weather observations and forecasts of more than 4000 airports (METAR and TAF reports).

The available stations are represented by yellow and red dots on the map.

Hover mouse over dot to see the name of the station.

Then click to see weather observations and forecasts.

To change the map : click on the green buttons with a black cross to zoom in, on the green button with a dash to zoom out, or on the green arrows for adjacent maps.


METAR-TAF: